Aulavik National Park,

7:40 AM MDT on July 21, 2017 (GMT -0600)
Aulavik National Park

Weather History for CWSQ - October, 2013

Change the Weather History Date:

Thursday, October 24, 2013

  Actual Average Record
Temperature  
Mean Temperature 6 °F -  
Max Temperature 11 °F - - ()
Min Temperature 1 °F - - ()
Degree Days  
Heating Degree Days 59    
Moisture  
Dew Point 2 °F    
Average Humidity 85    
Maximum Humidity 88    
Minimum Humidity 75    
Precipitation  
Precipitation 0.02 in - - ()
Sea Level Pressure  
Sea Level Pressure 29.81 in    
Wind  
Wind Speed 15 mph ()    
Max Wind Speed 24 mph    
Max Gust Speed -    
T = Trace of Precipitation, MM = Missing Value Source: Averaged Metar Reports

Daily Weather History Graph

Daily Weather History Graph

Search for Another Location

Airport or City:

Trip Planner

Search our weather history database for the weather conditions in past years. The results will help you decide how hot, cold, wet, or windy it might be!

Date:

Astronomy

Oct. 24, 2013 Rise Set
Actual Time 10:39 AM MDT 4:47 PM MDT
Civil Twilight 9:06 AM MDT 6:19 PM MDT
Nautical Twilight 7:36 AM MDT 7:49 PM MDT
Astronomical Twilight 6:06 AM MDT 9:18 PM MDT
Moon No Moon Rise No Moon Set
Length of Visible Light 9h 12m
Length of Day
6h 08m
Waning Gibbous, 70% of the Moon is Illuminated
Oct 24
Waning Gibbous
Oct 26
Last Quarter
Nov 3
New
Nov 9
First Quarter
Nov 17
Full

Hourly Weather History & Observations

Time (MDT) Temp. Windchill Dew Point Humidity Pressure Visibility Wind Dir Wind Speed Gust Speed Precip Events Conditions
12:00 AM 11 °F - 8 °F 82% 29.77 in - NW 16.1 mph - -  
12:00 AM 10.9 °F -5.9 °F 8.1 °F 88% 29.77 in - NW 16.1 mph - N/A   Unknown
1:00 AM 10.2 °F -6.9 °F 7.3 °F 88% 29.77 in - NW 16.1 mph - N/A   Unknown
2:00 AM 9.9 °F -7.3 °F 6.6 °F 87% 29.78 in - NW 16.1 mph - 0.01 in   Unknown
3:00 AM 9.0 °F -7.9 °F 5.5 °F 86% 29.78 in - WNW 15.0 mph - N/A   Unknown
4:00 AM 8.2 °F -10.5 °F 4.8 °F 86% 29.78 in - WNW 18.4 mph - N/A   Unknown
5:00 AM 8.4 °F -12.5 °F 5.2 °F 87% 29.77 in - NW 24.2 mph - N/A   Unknown
6:00 AM 7 °F - 3 °F 78% 29.78 in - NW 18.4 mph - -  
6:00 AM 6.8 °F -11.8 °F 3.4 °F 86% 29.78 in - NW 17.3 mph - N/A   Unknown
8:00 AM 5.0 °F -15.2 °F 1.6 °F 86% 29.78 in - NW 19.6 mph - N/A   Unknown
9:00 AM 4.8 °F -15.5 °F 1.4 °F 86% 29.79 in - NW 19.6 mph - N/A   Unknown
10:00 AM 4.6 °F -17.6 °F 1.2 °F 86% 29.79 in - WNW 24.2 mph - 0.01 in   Unknown
11:00 AM 3.6 °F -17.1 °F 0.1 °F 86% 29.80 in - WNW 19.6 mph - N/A   Unknown
12:00 PM 3 °F - -1 °F 75% 29.81 in - WNW 21.9 mph - -  
12:00 PM 2.8 °F -19.5 °F -0.9 °F 84% 29.81 in - WNW 23.0 mph - N/A   Unknown
1:00 PM 2.8 °F -20.0 °F -0.8 °F 85% - - WNW 24.2 mph - N/A   Unknown
2:00 PM 2.8 °F -18.1 °F -0.8 °F 85% 29.84 in - WNW 19.6 mph - N/A   Unknown
4:00 PM 2.5 °F -14.8 °F -1.3 °F 84% 29.86 in - WNW 12.7 mph - N/A   Unknown
5:00 PM 2.3 °F -15.7 °F -1.5 °F 84% 29.85 in - WNW 13.8 mph - N/A   Unknown
6:00 PM 2 °F - -1 °F 78% 29.85 in - NW 16.1 mph - -  
6:00 PM 2.3 °F -17.1 °F -1.3 °F 85% 29.85 in - WNW 16.1 mph - N/A   Unknown
7:00 PM 2.8 °F -8.2 °F -0.6 °F 86% 29.86 in - NW 5.8 mph - N/A   Unknown
8:00 PM 2.1 °F -11.6 °F -1.5 °F 85% 29.85 in - NW 8.1 mph - N/A   Unknown
9:00 PM 1.8 °F -10.8 °F -1.5 °F 86% 29.86 in - North 6.9 mph - N/A   Unknown
10:00 PM 2.5 °F -8.6 °F -1.1 °F 85% 29.86 in - NNW 5.8 mph - N/A   Unknown
11:00 PM 2.8 °F -6.6 °F -0.6 °F 86% 29.87 in - NNW 4.6 mph - N/A   Unknown